CDT,Max TemperatureF,Mean TemperatureF,Min TemperatureF,Max Dew PointF,MeanDew PointF,Min DewpointF,Max Humidity, Mean Humidity, Min Humidity, Max Sea Level PressureIn, Mean Sea Level PressureIn, Min Sea Level PressureIn, Max VisibilityMiles, Mean VisibilityMiles, Min VisibilityMiles, Max Wind SpeedMPH, Mean Wind SpeedMPH, Max Gust SpeedMPH,PrecipitationIn, CloudCover, Events, WindDirDegrees
2013-3-1,23,10,-3,14,4,-6,91,80,68,30.48,30.42,30.29,10,10,7,10,4,12,0.00,1,,333
2013-3-2,29,17,5,23,16,4,92,84,75,30.36,30.18,30.05,10,10,5,24,12,29,T,3,Snow,170
2013-3-3,27,20,12,23,19,10,92,87,81,30.04,29.84,29.71,10,6,1,26,14,33,0.06,7,Rain-Snow,127
2013-3-4,30,27,23,27,22,19,96,90,84,30.04,29.77,29.68,5,2,0,23,16,30,0.06,8,Fog-Snow,119
2013-3-5,23,15,7,19,12,3,91,82,73,30.48,30.28,29.97,10,5,2,28,17,32,T,8,Snow,338
2013-3-6,18,9,-1,13,6,-3,91,82,73,30.50,30.39,30.23,10,7,2,20,7,22,T,7,Snow,140
2013-3-7,24,18,12,21,15,9,92,85,77,30.28,30.18,30.07,10,8,4,22,13,28,T,5,Snow,138
2013-3-8,31,21,11,23,16,3,92,80,68,30.26,30.17,30.01,10,4,0,12,4,13,0.00,4,Fog,82
2013-3-9,29,22,15,25,21,11,96,86,75,30.12,29.93,29.84,10,6,2,29,16,33,T,8,Snow,353
2013-3-10,18,11,3,11,7,1,87,81,74,30.32,30.21,30.05,10,8,2,24,15,29,T,4,Snow,331
2013-3-11,29,14,-2,23,10,-6,91,80,68,30.17,29.94,29.78,10,10,8,24,9,31,T,6,,267
2013-3-12,27,15,2,21,13,0,92,82,71,30.39,30.11,29.85,10,5,2,26,16,32,T,7,Snow,334
2013-3-13,26,8,-10,21,2,-15,90,82,73,30.41,30.29,30.04,10,9,1,21,9,28,T,3,,169
2013-3-14,40,25,10,31,20,7,100,84,68,30.16,30.08,29.98,10,8,1,20,8,23,T,2,,345
2013-3-15,22,11,0,18,10,1,91,84,76,30.20,30.03,29.92,10,4,0,22,15,26,0.08,8,Fog-Rain-Snow,30
2013-3-16,10,1,-9,2,-5,-13,87,77,66,30.37,30.30,30.18,10,10,6,16,8,18,T,1,,327
2013-3-17,25,12,-2,22,7,-8,92,82,72,30.31,29.81,29.48,10,3,0,26,17,33,0.02,8,Fog-Snow,131
2013-3-18,27,14,1,23,8,-5,92,81,69,30.10,29.68,29.45,10,2,0,43,26,52,0.05,7,Fog-Snow,305
2013-3-19,15,5,-5,7,1,-10,83,75,67,30.45,30.26,30.11,10,7,2,25,13,31,T,6,Snow,316
2013-3-20,15,4,-8,4,-3,-11,83,71,59,30.46,30.38,30.25,10,10,10,18,7,21,0.00,0,,323
2013-3-21,17,2,-13,8,-4,-18,95,81,67,30.23,30.17,30.13,10,10,6,15,5,17,T,0,Snow,83
2013-3-22,19,6,-8,13,1,-14,87,79,70,30.20,30.16,30.13,10,10,3,6,2,7,T,3,Snow,44
2013-3-23,24,16,7,16,12,8,92,80,68,30.27,30.18,30.10,10,6,1,10,4,10,0.01,7,Snow,339
2013-3-24,25,16,7,20,13,5,92,83,74,30.33,30.21,30.13,10,7,1,20,12,23,T,7,Snow,336
2013-3-25,21,12,2,13,9,0,91,79,67,30.43,30.39,30.33,10,10,5,18,12,21,T,4,Snow,328
2013-3-26,22,8,-6,15,0,-11,95,78,61,30.42,30.34,30.28,10,6,0,10,4,12,0.00,3,Fog-Snow,156
2013-3-27,29,15,0,23,5,-6,95,81,67,30.35,30.27,30.21,10,4,0,10,5,13,0.00,2,Fog-Snow,85
2013-3-28,34,21,8,27,16,5,96,86,75,30.29,30.24,30.17,8,2,0,9,3,12,0.00,2,Fog-Snow,339
2013-3-29,36,28,20,31,24,14,89,78,66,30.27,30.14,30.01,4,2,0,15,4,18,T,8,,48
2013-3-30,37,31,24,31,28,23,100,91,82,30.03,29.98,29.93,10,4,0,26,12,31,T,4,Fog,311
2013-3-31,32,22,12,25,17,8,85,73,60,30.30,30.11,29.92,10,10,9,25,16,31,0.00,4,,336